TimeHST,TemperatureF,Dew PointF,Humidity,Sea Level PressureIn,VisibilityMPH,Wind Direction,Wind SpeedMPH,Gust SpeedMPH,PrecipitationIn,Events,Conditions,WindDirDegrees,DateUTC
12:54 AM,72.0,66.9,84,30.05,10.0,Variable,6.9,-,N/A,,Clear,0,2013-06-12 10:54:00
1:54 AM,73.0,68.0,84,30.04,10.0,NNE,10.4,24.2,N/A,,Clear,30,2013-06-12 11:54:00
2:54 AM,73.0,66.0,79,30.03,10.0,NE,12.7,20.7,N/A,,Clear,50,2013-06-12 12:54:00
3:54 AM,72.0,66.0,81,30.03,10.0,NNE,11.5,20.7,N/A,,Clear,30,2013-06-12 13:54:00
4:54 AM,72.0,64.9,78,30.04,10.0,NNE,4.6,-,N/A,,Clear,30,2013-06-12 14:54:00
5:54 AM,71.1,68.0,90,30.05,10.0,Variable,4.6,-,N/A,,Partly Cloudy,0,2013-06-12 15:54:00
6:54 AM,75.0,64.0,69,30.06,10.0,NNE,8.1,17.3,N/A,,Partly Cloudy,30,2013-06-12 16:54:00
7:54 AM,77.0,64.9,66,30.08,10.0,NE,12.7,19.6,N/A,,Partly Cloudy,40,2013-06-12 17:54:00
8:54 AM,79.0,64.0,60,30.08,10.0,NE,15.0,21.9,N/A,,Partly Cloudy,40,2013-06-12 18:54:00
9:10 AM,80.6,64.4,58,30.08,10.0,NE,17.3,26.5,N/A,,Partly Cloudy,50,2013-06-12 19:10:00
9:54 AM,80.1,68.0,67,30.08,10.0,NE,20.7,28.8,N/A,,Partly Cloudy,40,2013-06-12 19:54:00
10:54 AM,79.0,68.0,69,30.08,10.0,NE,20.7,29.9,N/A,,Scattered Clouds,40,2013-06-12 20:54:00
11:54 AM,79.0,68.0,69,30.09,10.0,NE,15.0,32.2,N/A,,Scattered Clouds,40,2013-06-12 21:54:00
12:54 PM,80.1,69.1,69,30.06,10.0,NE,23.0,34.5,0.00,,Scattered Clouds,40,2013-06-12 22:54:00
1:54 PM,82.0,66.9,60,30.06,10.0,NE,19.6,36.8,N/A,,Scattered Clouds,40,2013-06-12 23:54:00
2:54 PM,80.1,68.0,67,30.04,10.0,NE,21.9,33.4,N/A,,Scattered Clouds,40,2013-06-13 00:54:00
3:54 PM,79.0,69.1,72,30.04,10.0,NE,17.3,34.5,0.00,,Scattered Clouds,40,2013-06-13 01:54:00
4:54 PM,79.0,68.0,69,30.03,10.0,NE,19.6,28.8,N/A,,Clear,50,2013-06-13 02:54:00
5:54 PM,75.0,69.1,82,30.05,10.0,ENE,15.0,24.2,N/A,,Scattered Clouds,60,2013-06-13 03:54:00
6:54 PM,73.9,68.0,82,30.06,10.0,NE,13.8,28.8,N/A,,Clear,40,2013-06-13 04:54:00
7:54 PM,73.0,69.1,87,30.08,10.0,NE,16.1,29.9,N/A,,Clear,50,2013-06-13 05:54:00
8:54 PM,73.0,69.1,87,30.10,10.0,NE,15.0,24.2,N/A,,Clear,50,2013-06-13 06:54:00
9:54 PM,73.0,69.1,87,30.11,10.0,NE,15.0,23.0,N/A,,Clear,40,2013-06-13 07:54:00
10:54 PM,72.0,70.0,93,30.12,5.0,NE,13.8,26.5,0.01,Rain,Light Rain,40,2013-06-13 08:54:00
11:54 PM,71.1,70.0,96,30.11,6.0,NE,18.4,27.6,0.00,Rain,Light Rain,40,2013-06-13 09:54:00